Regional Weather Roundup
Issued by NWS

Home | Current Version | Previous Version | Text Only | Print | Product List | Glossary On
Versions: 1 2 3 4 5 6 7 8 9 10 11 12 13 14 15 16 17 18 19 20 21 22 23 24 25 26 27
000
ASUS44 KJAN 230210
RWRMS

MISSISSIPPI HOURLY WEATHER ROUNDUP
NATIONAL WEATHER SERVICE JACKSON MS
900 PM CDT FRI SEP 22 2017

NOTE: "FAIR: INDICATES FEW OR NO CLOUDS BELOW 12,000 FEET WITH NO
SIGNIFICANT WEATHER AND/OR OBSTRUCTIONS TO VISIBILITY.

MSZ001>002-007>008-010>013-018>021-025>028-034>036-230300-
NORTHWEST MISSISSIPPI

CITY           SKY/WX    TMP DP  RH WIND       PRES   REMARKS
BATESVILLE     FAIR      73  71  93 CALM      29.99R
CLARKSDALE       N/A     81  75  83 NE5       29.97R
CLEVELAND      FAIR      80  73  79 E5        29.96R
GREENWOOD      CLEAR     76  73  91 NE5       29.96R
GREENVILLE     CLEAR     76  70  82 NE6       29.95R
OXFORD         FAIR      73  70  88 CALM      30.01R
TUNICA           N/A     73  70  88 NE3       29.98R
WINONA         FAIR      74  74 100 CALM      29.97R
$$

MSZ003>006-009-014>017-022>024-029>033-037>039-230300-
NORTHEAST MISSISSIPPI

CITY           SKY/WX    TMP DP  RH WIND       PRES   REMARKS
COLUMBUS AFB   CLEAR     75  73  95 CALM      29.97R
STARKVILLE     FAIR      73  72  94 CALM      29.99R
TUPELO         CLEAR     78  69  73 CALM      29.98R
$$

MSZ040-058-230300-
CENTRAL MISSISSIPPI

CITY           SKY/WX    TMP DP  RH WIND       PRES   REMARKS
JACKSON INTL   CLEAR     78  73  84 NE3       29.96R
JACKSON HAWKNS CLEAR     76  74  93 CALM      29.97R
MADISON        FAIR      72  72 100 CALM      29.97R
MERIDIAN KEY   CLEAR     75  73  93 CALM      29.97R
MERIDIAN NAS   CLEAR     73  72  96 CALM      29.98R FOG
RAYMOND        FAIR      73  72  94 CALM      29.96R FOG
VICKSBURG VKS  CLEAR     75  73  94 CALM      29.96S
$$

MSZ059>079-230300-
SOUTH MISSISSIPPI

CITY           SKY/WX    TMP DP  RH WIND       PRES   REMARKS
COLUMBIA       FAIR      75 N/A N/A CALM      30.00R
HATTIESBURG    NOT AVBL
LAUREL         FAIR      75  75 100 CALM      29.97R
MCCOMB         NOT AVBL
NATCHEZ        PTCLDY    79  73  82 E3        29.96R
PINE BELT      CLEAR     75  71  87 S6        29.98R
$$

MSZ080>082-230300-
COASTAL MISSISSIPPI

CITY           SKY/WX    TMP DP  RH WIND       PRES   REMARKS
BILOXI         CLEAR     76  73  92 NE6       29.95R
PASCAGOULA     NOT AVBL
GULFPORT       NOT AVBL
$$

LAZ007>009-015>016-023>026-230300-
NORTHEAST LOUISIANA

CITY           SKY/WX    TMP DP  RH WIND       PRES   REMARKS
BASTROP        FAIR      73  73  98 CALM      29.96R FOG
TALLULAH/VBURG CLEAR     75  73  93 CALM      29.95R
VIDALIA          N/A    N/A N/A N/A MISG      29.93S
$$




USA.gov is the U.S. government's official web portal to all federal, state and local government web resources and services.